Location: Newark
(7.0858°N, 171.3717°E)
Time: 06:18:13
(UTC+00:00)

A-11 Canister half - Pass Details

Date: 04 August 2021
Orbit: 1526 x 1683 km, 47.3° (Epoch: 16 September)

Event Time Altitude Azimuth Distance (km) Brightness Sun altitude
Rises 07:42:35 0° 316° (NW) 4,787 12.8 -12.5°
Reaches altitude 10° 07:45:43 10° 315° (NW) 3,781 12.1 -13.3°
Maximum altitude 07:55:14 75° 231° (SW) 1,594 9.1 -15.5°
Enters shadow 08:03:38 14° 147° (SSE) 3,405 10.3 -17.4°
